Boone, NC

3:38 AM EDT on September 21, 2019 (GMT -0400)
Boone

Weather History for KTNB - August, 2019

Change the Weather History Date:

Wednesday, August 21, 2019

  Actual Average (WUND) Record (WUND)
Temperature  
Mean Temperature 72 °F -  
Max Temperature 83 °F - - (-1)
Min Temperature 61 °F - - (-1)
Cooling Degree Days 7    
Growing Degree Days 22 (Base 50)    
Moisture  
Dew Point 63 °F    
Average Humidity 76    
Maximum Humidity 100    
Minimum Humidity 46    
Precipitation  
Precipitation 0.00 in - - ()
Sea Level Pressure  
Sea Level Pressure 30.18 in    
Wind  
Wind Speed 3 mph ()    
Max Wind Speed 20 mph    
Max Gust Speed 26 mph    
Visibility 9.9 miles    
Events Thunderstorm    
Averages and records for this station are not official NWS values.
T = Trace of Precipitation, MM = Missing Value Source: Averaged Metar Reports

Daily Weather History Graph

Daily Weather History Graph

Search for Another Location

Airport or City:

Astronomy

Aug. 21, 2019 Rise Set
Actual Time 6:49 AM EDT 8:09 PM EDT
Civil Twilight 6:22 AM EDT 8:36 PM EDT
Nautical Twilight 5:50 AM EDT 9:08 PM EDT
Astronomical Twilight 5:16 AM EDT 9:42 PM EDT
Moon 11:37 PM EDT 12:14 PM EDT
Length of Visible Light 14h 14m
Length of Day
13h 20m
Waning Gibbous, 69% of the Moon is Illuminated
Aug 21
Waning Gibbous
Aug 23
Last Quarter
Aug 30
New
Sep 5
First Quarter
Sep 14
Full

Hourly Weather History & Observations

Time (EDT) Temp. Heat Index Dew Point Humidity Pressure Visibility Wind Dir Wind Speed Gust Speed Precip Events Conditions
12:15 AM 65.3 °F - 65.3 °F 100% 30.20 in 10.0 mi Calm Calm - N/A   Clear
12:35 AM 64.9 °F - 64.9 °F 100% 30.20 in 10.0 mi Calm Calm - N/A   Scattered Clouds
12:55 AM 64.9 °F - 64.9 °F 100% 30.21 in 10.0 mi Calm Calm - N/A   Clear
1:15 AM 64.8 °F - 64.8 °F 100% 30.21 in 10.0 mi Calm Calm - N/A   Scattered Clouds
1:35 AM 64.2 °F - 64.2 °F 100% 30.20 in 10.0 mi Calm Calm - N/A   Scattered Clouds
1:55 AM 65.7 °F - 64.9 °F 98% 30.20 in 10.0 mi Calm Calm - N/A   Clear
2:15 AM 64.4 °F - 64.4 °F 100% 30.19 in 10.0 mi Calm Calm - N/A   Clear
2:35 AM 62.6 °F - 62.6 °F 100% 30.19 in 10.0 mi Calm Calm - N/A   Clear
2:55 AM 62.2 °F - 62.2 °F 100% 30.18 in 7.0 mi Calm Calm - N/A   Clear
3:15 AM 61.9 °F - 61.9 °F 100% 30.19 in 10.0 mi Calm Calm - N/A   Scattered Clouds
3:35 AM 62.6 °F - 62.6 °F 100% 30.19 in 10.0 mi Calm Calm - N/A   Scattered Clouds
3:55 AM 61.9 °F - 61.9 °F 100% 30.19 in 10.0 mi Calm Calm - N/A   Scattered Clouds
4:15 AM 62.6 °F - 62.6 °F 100% 30.19 in 10.0 mi Calm Calm - N/A   Scattered Clouds
4:35 AM 63.1 °F - 63.1 °F 100% 30.19 in 10.0 mi Calm Calm - N/A   Clear
4:55 AM 62.4 °F - 62.4 °F 100% 30.18 in 10.0 mi Calm Calm - N/A   Scattered Clouds
5:15 AM 62.2 °F - 62.2 °F 100% 30.18 in 10.0 mi Calm Calm - N/A   Scattered Clouds
5:35 AM 62.8 °F - 62.8 °F 100% 30.18 in 10.0 mi Calm Calm - N/A   Clear
5:55 AM 62.8 °F - 62.8 °F 100% 30.17 in 10.0 mi Calm Calm - N/A   Clear
6:15 AM 64.4 °F - 64.0 °F 99% 30.17 in 10.0 mi Calm Calm - N/A   Clear
6:35 AM 67.1 °F - 63.3 °F 88% 30.16 in 10.0 mi Calm Calm - N/A   Clear
6:55 AM 67.1 °F - 62.8 °F 86% 30.17 in 10.0 mi West 10.4 mph 16.1 mph N/A   Clear
7:15 AM 67.3 °F - 62.8 °F 85% 30.18 in 10.0 mi West 9.2 mph 17.3 mph N/A   Scattered Clouds
7:35 AM 68.2 °F - 62.8 °F 83% 30.18 in 10.0 mi Calm Calm - N/A   Mostly Cloudy
7:55 AM 68.9 °F - 63.0 °F 81% 30.19 in 10.0 mi Calm Calm - N/A   Scattered Clouds
8:15 AM 69.3 °F - 63.0 °F 80% 30.20 in 10.0 mi Calm Calm - N/A   Scattered Clouds
8:35 AM 70.5 °F - 63.3 °F 78% 30.20 in 10.0 mi Calm Calm - N/A   Mostly Cloudy
8:55 AM 70.5 °F - 62.8 °F 76% 30.20 in 10.0 mi NW 9.2 mph - N/A   Mostly Cloudy
9:15 AM 71.1 °F - 63.0 °F 75% 30.19 in 10.0 mi NW 11.5 mph - N/A   Scattered Clouds
9:35 AM 71.8 °F - 62.8 °F 73% 30.19 in 10.0 mi NW 13.8 mph 17.3 mph N/A   Scattered Clouds
9:55 AM 72.7 °F - 63.5 °F 73% 30.20 in 10.0 mi WNW 9.2 mph - N/A   Scattered Clouds
10:15 AM 72.9 °F - 63.5 °F 72% 30.20 in 10.0 mi WNW 5.8 mph - N/A   Mostly Cloudy
10:35 AM 72.9 °F - 63.7 °F 73% 30.20 in 10.0 mi WNW 10.4 mph 16.1 mph N/A   Overcast
10:55 AM 72.5 °F - 63.9 °F 74% 30.21 in 10.0 mi NW 10.4 mph 16.1 mph N/A   Overcast
11:35 AM 74.1 °F - 63.9 °F 70% 30.21 in 10.0 mi West 6.9 mph - N/A   Mostly Cloudy
11:55 AM 75.4 °F - 63.9 °F 67% 30.21 in 10.0 mi NNW 12.7 mph 18.4 mph N/A   Mostly Cloudy
12:15 PM 76.1 °F - 64.2 °F 67% 30.21 in 10.0 mi Calm Calm - N/A   Scattered Clouds
12:35 PM 79.5 °F - 63.7 °F 58% 30.20 in 10.0 mi WNW 15.0 mph 20.7 mph N/A   Scattered Clouds
12:55 PM 79.7 °F - 63.1 °F 57% 30.20 in 10.0 mi West 4.6 mph - N/A   Scattered Clouds
1:15 PM 80.6 °F 81.9 °F 63.0 °F 55% 30.20 in 10.0 mi West 3.5 mph 16.1 mph N/A   Scattered Clouds
1:35 PM 81.7 °F 82.9 °F 62.8 °F 53% 30.20 in 10.0 mi WNW 9.2 mph - N/A   Scattered Clouds
1:55 PM 80.6 °F 81.7 °F 62.1 °F 53% 30.19 in 10.0 mi Calm Calm - N/A   Scattered Clouds
2:15 PM 82.2 °F 83.2 °F 62.6 °F 51% 30.19 in 10.0 mi NW 5.8 mph - N/A   Scattered Clouds
2:35 PM 82.0 °F 83.1 °F 62.8 °F 52% 30.18 in 10.0 mi Calm Calm - N/A   Scattered Clouds
2:55 PM 83.3 °F 84.1 °F 62.2 °F 49% 30.17 in 10.0 mi Calm Calm - N/A Thunderstorm Clear
3:15 PM 82.6 °F 83.4 °F 62.1 °F 50% 30.18 in 10.0 mi NNW 13.8 mph 18.4 mph N/A Thunderstorm Scattered Clouds
3:35 PM 83.1 °F 83.9 °F 61.9 °F 49% 30.17 in 10.0 mi NW 16.1 mph 20.7 mph N/A Thunderstorm Scattered Clouds
3:55 PM 82.2 °F 83.0 °F 61.9 °F 50% 30.16 in 10.0 mi WNW 12.7 mph 19.6 mph N/A   Clear
4:15 PM 82.4 °F 82.9 °F 61.0 °F 48% 30.15 in 10.0 mi WNW 19.6 mph 26.5 mph N/A Thunderstorm Thunderstorm
4:35 PM 82.4 °F 82.9 °F 61.2 °F 48% 30.15 in 10.0 mi NW 11.5 mph 20.7 mph N/A   Clear
4:55 PM 82.8 °F 83.1 °F 60.4 °F 47% 30.14 in 10.0 mi WNW 11.5 mph 19.6 mph N/A   Clear
5:15 PM 82.4 °F 82.6 °F 59.9 °F 46% 30.14 in 10.0 mi WNW 11.5 mph 20.7 mph N/A   Clear
5:35 PM 82.2 °F 82.6 °F 59.9 °F 47% 30.17 in 10.0 mi West 10.4 mph 21.9 mph N/A   Clear
5:55 PM 81.9 °F 82.5 °F 60.8 °F 49% 30.16 in 10.0 mi WNW 11.5 mph 17.3 mph N/A   Clear
6:15 PM 81.9 °F 82.6 °F 61.3 °F 50% 30.16 in 10.0 mi WNW 13.8 mph 18.4 mph N/A   Clear
6:35 PM 81.5 °F 82.4 °F 61.7 °F 51% 30.14 in 10.0 mi NW 11.5 mph 17.3 mph N/A   Clear
6:55 PM 80.6 °F 81.7 °F 62.1 °F 53% 30.14 in 10.0 mi West 11.5 mph 21.9 mph N/A   Clear
7:15 PM 80.2 °F 81.5 °F 62.6 °F 55% 30.15 in 10.0 mi WNW 8.1 mph - N/A   Clear
7:35 PM 78.8 °F - 62.8 °F 58% 30.14 in 10.0 mi WNW 3.5 mph - N/A   Clear
7:55 PM 78.3 °F - 63.1 °F 60% 30.14 in 10.0 mi Calm Calm - N/A   Clear
8:15 PM 77.4 °F - 63.0 °F 61% 30.15 in 10.0 mi Calm Calm - N/A   Scattered Clouds
8:35 PM 77.0 °F - 62.8 °F 61% 30.16 in 10.0 mi Calm Calm - N/A   Scattered Clouds
8:55 PM 71.8 °F - 64.0 °F 77% 30.17 in 7.0 mi Calm Calm - N/A   Scattered Clouds
9:15 PM 70.5 °F - 64.0 °F 80% 30.18 in 10.0 mi Calm Calm - N/A   Clear
9:35 PM 71.2 °F - 64.2 °F 78% 30.18 in 10.0 mi Calm Calm - N/A   Clear
9:55 PM 71.6 °F - 63.9 °F 76% 30.19 in 10.0 mi Calm Calm - N/A   Scattered Clouds
10:15 PM 68.4 °F - 63.9 °F 85% 30.19 in 10.0 mi Calm Calm - N/A   Scattered Clouds
10:35 PM 67.8 °F - 64.0 °F 88% 30.19 in 10.0 mi Calm Calm - N/A   Clear
10:55 PM 67.8 °F - 65.3 °F 92% 30.18 in 10.0 mi Calm Calm - N/A   Clear
11:15 PM 67.8 °F - 65.1 °F 91% 30.19 in 10.0 mi Calm Calm - N/A   Clear
11:35 PM 66.4 °F - 65.5 °F 97% 30.19 in 10.0 mi Calm Calm - N/A   Clear
11:55 PM 65.8 °F - 65.7 °F 99% 30.20 in 10.0 mi Calm Calm - N/A   Clear